Location: Birkenlohe
(48.9060°N, 9.7807°E)
Time: 00:38:52
(UTC+00:00)

Daily predictions for brighter satellites

Satellite Brightness Start Highest point End
(mag) Time Altitude Azimuth Time Altitude Azimuth Time Altitude Azimuth
Cosmos 292 Rocket 4.5 00:04:41 26° SSE 00:06:49 42° ESE 00:11:20 10° NE
Cosmos 2227 Rocket 2.2 00:05:20 27° SSW 00:08:35 88° WNW 00:14:18 10° NNE
Cosmos 1892 3.4 00:09:05 29° WSW 00:10:11 37° WNW 00:13:29 10° N
IDEFIX/ARIANE 42P 4.3 00:06:39 10° NE 00:10:49 23° E 00:14:28 12° SE
Cosmos 990 Rocket 3.9 00:08:24 30° SSW 00:10:58 77° ESE 00:16:08 10° NNE
Cosmos 332 Rocket 4.0 00:09:47 27° SW 00:12:25 66° WNW 00:17:19 10° NNE
SL-12 R/B(2) 4.4 00:09:26 23° SSW 00:15:03 73° SE 00:24:49 10° NE
CENTAUR R/B 2.5 00:12:18 27° SSW 00:15:38 70° SE 00:22:41 10° NE
CZ-2C R/B 4.3 00:11:47 10° ESE 00:16:19 30° ENE 00:20:57 10° N
CZ-2D R/B 4.1 00:14:24 10° NE 00:18:16 20° E 00:22:05 10° SE
GEOS 3 Rocket 3.6 00:13:24 10° NE 00:18:35 81° NW 00:22:02 21° SW
Meteor 1-21 Rocket 4.3 00:18:17 26° S 00:21:40 83° E 00:27:22 10° NNE
H-2A R/B 3.2 00:17:55 10° N 00:21:47 34° WNW 00:24:02 20° WSW
Cosmos 1975 Rocket 3.3 00:21:39 28° SSE 00:23:49 60° E 00:28:08 10° NNE
Cosmos 1538 Rocket 4.0 00:19:05 10° NNW 00:24:14 65° WSW 00:27:12 25° S
SL-4 R/B 3.1 00:23:24 10° W 00:26:25 26° SW 00:26:25 26° SW
Cosmos 2074 Rocket 4.5 00:24:31 22° SW 00:28:23 50° WNW 00:34:26 10° N
Cosmos 2297 Rocket 3.3 00:24:23 13° WSW 00:29:01 39° NW 00:34:19 10° NNE
Cosmos 2219 3.2 00:27:36 26° SSW 00:30:52 79° ESE 00:36:31 10° NNE
Cosmos 2341 Rocket 4.3 00:28:16 20° SSE 00:32:34 62° E 00:38:42 10° NNE
Cosmos 2084 Rocket 4.0 00:29:51 18° WSW 00:32:47 51° NW 00:36:50 10° NE
Cosmos 1455 Rocket 3.1 00:30:57 10° NNW 00:35:22 67° W 00:37:36 28° S
Aureole 1 Rocket 2.7 00:38:34 33° SSW 00:40:06 86° ESE 00:44:32 10° NNE
Cosmos 1825 4.0 00:42:47 14° W 00:44:13 18° WNW 00:46:38 10° NNW
Cosmos 372 Rocket 4.2 00:42:35 24° S 00:45:44 63° ESE 00:50:54 10° NNE
ADEOS II 3.9 00:41:49 10° NE 00:45:56 23° E 00:50:02 10° SE
Meteor 2-1 Rocket 4.3 00:42:52 10° NNW 00:48:50 84° W 00:53:19 18° S
Cosmos 923 Rocket 3.9 00:47:03 10° NNW 00:52:21 83° WSW 00:56:51 14° SSE
Cosmos 1025 Rocket 3.9 00:50:34 22° SW 00:52:49 37° WNW 00:56:51 10° N
BREEZE-M DEB (TANK) 2.5 00:54:21 10° WNW 00:58:40 32° SW 00:58:59 31° SSW
Resurs 1-4 Rocket 2.9 00:53:50 10° NNE 00:58:53 44° E 01:03:09 14° SSE
NOSS 3-2 (A) 3.2 00:56:57 21° SW 01:00:35 88° SE 01:06:54 10° NE
Cosmos 1937 Rocket 3.6 00:58:06 22° S 01:01:34 73° ESE 01:06:49 10° NNE
Cosmos 1606 2.4 00:58:28 10° NNW 01:02:03 79° W 01:04:04 24° S
Cosmos 2263 Rocket 2.2 00:58:49 22° SSW 01:02:35 85° WNW 01:08:11 10° NNE
CZ-4C R/B 3.8 00:59:51 10° W 01:04:18 31° NNW 01:09:47 10° NE
Cosmos 1898 Rocket 3.5 01:01:19 22° SSW 01:04:42 81° WNW 01:09:55 10° NNE
NOSS 3-2 (C) 3.7 01:03:08 20° S 01:06:33 49° ESE 01:12:27 10° NE
Orbus 7S? 2.8 01:04:43 10° NW 01:07:25 88° SW 01:11:31 10° SE
MOZ.5/SAFIR/RUBIN 5/SL-8 3.9 01:05:48 20° S 01:08:55 60° WSW 01:13:30 10° NNW
Cosmos 2218 Rocket 4.0 01:04:28 18° S 01:09:15 88° E 01:15:29 10° N
Helios 1A Rocket 3.8 01:12:04 22° SW 01:13:32 29° W 01:16:55 10° NW
BlueWalker 3 3.2 01:11:05 10° WNW 01:14:39 41° N 01:18:13 10° ENE
Cosmos 2366 rocket 4.0 01:11:40 18° SSW 01:16:30 80° W 01:22:48 10° N
Iridium 921 4.4 01:14:40 22° S 01:16:47 85° E 01:20:15 10° N
Cosmos 1461 2.8 01:14:31 23° SSW 01:16:51 69° SE 01:20:44 10° NE
Cosmos 1844 Rocket 3.9 01:17:43 10° SSE 01:22:36 33° ESE 01:27:31 10° NE
BREEZE-M DEB (TANK) 2.8 01:25:57 22° S 01:25:57 22° S 01:28:02 10° SSE
MSX 3.9 01:22:42 10° NNE 01:28:28 84° ESE 01:33:23 15° SSW
Cosmos 1680 Rocket 3.7 01:29:33 10° NNW 01:34:35 50° WSW 01:39:26 11° S
ALOS 3.7 01:30:47 10° NNE 01:34:57 32° E 01:39:05 10° SSE
Cosmos 1818 3.9 01:30:40 10° NW 01:35:53 46° WSW 01:41:03 10° S
Cosmos 2112 Rocket 4.1 01:31:40 10° NNW 01:36:45 56° WSW 01:41:48 10° S
SL-16 R/B 3.5 01:33:51 10° NW 01:38:08 22° W 01:41:09 15° SW
SL-16 R/B 2.9 01:32:19 10° SSE 01:38:30 69° ENE 01:44:42 10° NNW
Cosmos 1603 3.7 01:37:41 10° NNW 01:43:28 87° WSW 01:49:13 10° SSE
Cosmos 1869 4.4 01:41:34 10° NNW 01:44:38 25° W 01:46:40 16° SW
Cosmos 1544 Rocket 4.5 01:42:50 10° NNW 01:46:50 33° W 01:49:57 15° SSW
USA 234 3.9 01:40:57 10° E 01:47:21 60° NNE 01:53:46 10° NW
COSMOS 2441 4.4 01:43:04 10° NNE 01:47:54 86° ESE 01:52:26 12° SSW
Meteor 1-28 Rocket 3.2 01:45:16 10° SSE 01:48:46 73° ENE 01:52:20 10° N
Cosmos 2082 4.5 01:45:35 12° WSW 01:50:34 43° NW 01:55:57 10° NNE
IDEFIX/ARIANE 42P 2.9 01:45:32 10° N 01:50:41 56° WNW 01:55:13 13° SW
Cosmos 2228 3.7 01:48:26 10° NNW 01:52:26 37° W 01:55:50 13° SSW
Cosmos 2227 Rocket 4.1 01:49:10 10° W 01:53:27 21° NW 01:57:45 10° N
Cosmos 1943 3.4 01:48:11 10° NW 01:53:34 49° WSW 01:58:56 10° S
CZ-2C R/B 3.1 01:50:20 10° NNE 01:55:50 80° WNW 02:00:50 11° SSW
CZ-2C R/B 3.0 01:51:20 10° S 01:56:22 47° W 02:01:34 10° NNW
Cosmos 1437 Rocket 2.6 01:53:28 13° SSW 01:56:49 78° W 02:00:38 10° N
CZ-2D R/B 2.3 01:53:27 10° N 01:58:47 67° WNW 02:03:47 11° SSW
FENGYUN 3A 3.7 01:55:44 10° NNE 02:01:08 88° E 02:06:33 10° SSW
Cosmos 1727 Rocket 4.2 01:58:14 10° NNW 02:04:25 56° W 02:10:34 10° SSW
CENTAUR R/B 3.8 02:01:05 10° W 02:06:52 39° NNW 02:13:57 10° NE
H-2A R/B 4.4 02:04:56 10° N 02:08:33 34° WNW 02:12:02 11° SW
Cosmos 2239 Rocket 4.5 02:02:56 10° SSW 02:09:04 81° W 02:15:16 10° N
Envisat 4.3 02:05:26 10° NNE 02:10:08 37° E 02:14:49 10° SSE
Cosmos 1048 Rocket 4.0 02:06:24 10° NNW 02:11:38 82° WSW 02:16:54 10° SSE
USA 238 DEB 3.7 02:06:34 11° SSW 02:12:36 76° SE 02:19:23 10° NE
USA 238 3.7 02:06:36 11° SSW 02:12:39 75° SE 02:19:26 10° NE
NPP 4.5 02:10:06 10° N 02:15:05 39° WNW 02:20:02 10° SW
ASTEX 1 3.5 02:15:57 10° S 02:20:46 61° W 02:25:36 10° NNW
Cosmos 1606 Rocket 3.9 02:18:10 10° NNW 02:22:29 50° W 02:26:45 10° SSW
Cosmos 1125 Rocket 4.2 02:18:21 10° S 02:23:28 54° ESE 02:28:38 10° NNE
Cosmos 1867 3.7 02:18:47 10° SW 02:24:15 88° SE 02:29:47 10° NE
CZ-2C R/B 4.0 02:20:20 10° NNE 02:24:22 30° E 02:28:23 10° SSE
IRAS Rocket 4.5 02:19:20 10° NNE 02:24:49 71° ESE 02:30:17 10° S
Cosmos 921 Rocket 3.3 02:20:56 10° NNW 02:24:58 44° WSW 02:28:56 10° S
ADEOS II 2.4 02:20:47 10° N 02:25:55 58° WNW 02:31:03 10° SSW
BREEZE-M DEB (TANK) 4.4 02:22:29 10° SSW 02:28:06 22° SSE 02:30:48 10° ESE
Alouette 2 Rocket 3.7 02:23:35 10° S 02:28:14 73° ESE 02:31:53 10° NNE
Cosmos 494 Rocket 4.4 02:23:30 10° NW 02:28:27 44° WSW 02:33:24 10° S
Cosmos 1833 Rocket 4.5 02:26:02 10° NNW 02:31:17 38° NE 02:36:30 10° ESE
Cosmos 1844 3.8 02:28:33 10° SSW 02:34:20 87° WNW 02:40:11 10° NNE
